Skip Page Navigation
NASA JPL Caltech
NASA Logo - Jet Propulsion Laboratory + View the NASA Portal
+ Center for Near-Earth Object Studies
JPL Home Earth Solar System Stars & Galaxies Technology
JPL Solar System Dynamics
BODIES ORBITS EPHEMERIDES TOOLS PHYSICAL DATA DISCOVERY FAQ SITE MAP
JPL Small-Body Database Browser
Search: [ help ]  
129026 Conormcmenamin (2004 TE345)
Classification: Main-belt Asteroid          SPK-ID: 2129026
Ephemeris | Orbit Diagram | Orbital Elements | Mission Design | Physical Parameters | Discovery Circumstances | Close-Approach Data ]

[ hide orbit diagram ]

For accurate long-term ephemerides, please instead use our Horizons system.This orbit viewer was implemented using two-body methods, and hence should not be used for determining accurate long-term trajectories (over several years or decades) or planetary encounter circumstances.


[ revert to old Java-based viewer ]

Orbital Elements at Epoch 2459000.5 (2020-May-31.0) TDB
Reference: JPL 19 (heliocentric ecliptic J2000)
 Element Value Uncertainty (1-sigma)   Units 
e .08221168371557204 5.4152e-08  
a 3.176992976055952 3.7718e-08 au
q 2.915807034341846 1.6934e-07 au
i 17.91752086978565 5.5434e-06 deg
node 58.35782937290159 1.6943e-05 deg
peri 324.1027196517227 3.6782e-05 deg
M 302.7299540938454 3.2233e-05 deg
tp 2459329.539350563075
(2021-Apr-25.03935056)
0.00018616 TDB
period 2068.344181124137
5.66
3.6834e-05
1.008e-07
d
yr
n .1740522700648116 3.0996e-09 deg/d
Q 3.438178917770057 4.0819e-08 au
  Orbit Determination Parameters
   # obs. used (total)      534  
   data-arc span      8064 days (22.08 yr)  
   first obs. used      1998-09-19  
   last obs. used      2020-10-17  
   planetary ephem.      DE431  
   SB-pert. ephem.      SB431-N16  
   condition code      0  
   norm. resid. RMS      .55916  
   source      ORB  
   producer      Otto Matic  
   solution date      2020-Nov-12 16:52:33  

Additional Information
 Earth MOID = 1.93941 au 
 Jupiter MOID = 1.99817 au 
 T_jup = 3.120 
[ show covariance matrix ]

Ephemeris | Orbit Diagram | Orbital Elements | Mission Design | Physical Parameters | Discovery Circumstances | Close-Approach Data ]

Physical Parameter Table
Parameter Symbol Value Units Sigma Reference Notes
absolute magnitude H 14.5   n/a MPO432770  

129026 Conormcmenamin           Discovered 2004 Oct. 15 by Mt. Lemmon Survey at Mount Lemmon.
Conor Brendan McMenamin (b. 1989) is a student engineer at the Massachusetts Institute of Technology working as the Thermal Engineer guiding the design and stable temperature performance of the student-built Regolith X-ray Imaging Spectrometer aboard the OSIRIS-REx Asteroid Sample Return Mission.
NOTE: some special characters may not display properly (any characters within {} are an attempt to place the proper accent above a character)
Reference: MPC batch dated 2016-08-18Last Updated: 2016-08-22

[ show close-approach data ]
Ephemeris | Orbit Diagram | Orbital Elements | Mission Design | Physical Parameters | Discovery Circumstances | Close-Approach Data ]
ABOUT SSD CREDITS/AWARDS PRIVACY/COPYRIGHT GLOSSARY LINKS
FirstGov 2020-Nov-23 23:52 UT
(server date/time)  
NASA Home Page
Site Manager:   Ryan S. Park
Webmaster  Alan B. Chamberlin